Time,TemperatureF,DewpointF,PressureIn,WindDirection,WindDirectionDegrees,WindSpeedMPH,WindSpeedGustMPH,Humidity,HourlyPrecipIn,Conditions,Clouds,dailyrainin,SoftwareType,DateUTC
2013-04-20 00:00:00,50.0,49.5,30.30,NNW,338,2.7,3.8,98,0.00,,---,0.00,VWS V14.01,2013-04-20 07:00:00,
2013-04-20 00:02:00,50.0,49.5,30.30,NW,315,1.3,2.7,98,0.00,,---,0.00,VWS V14.01,2013-04-20 07:02:00,
2013-04-20 00:07:00,50.0,49.5,30.30,NNW,338,1.1,2.7,98,0.00,,---,0.00,VWS V14.01,2013-04-20 07:07:00,
2013-04-20 00:10:00,50.0,49.5,30.30,WNW,292,2.5,2.7,98,0.00,,---,0.00,VWS V14.01,2013-04-20 07:10:00,
2013-04-20 00:12:00,49.8,49.3,30.30,NW,315,0.0,2.5,98,0.00,,---,0.00,VWS V14.01,2013-04-20 07:12:00,
2013-04-20 00:18:00,49.8,49.3,30.30,NW,315,1.6,2.5,98,0.00,,---,0.00,VWS V14.01,2013-04-20 07:18:00,
2013-04-20 00:20:00,49.8,49.3,30.30,NNW,338,1.3,2.5,98,0.00,,---,0.00,VWS V14.01,2013-04-20 07:20:00,
2013-04-20 00:23:00,49.8,49.3,30.30,NNW,338,0.0,1.3,98,0.00,,---,0.00,VWS V14.01,2013-04-20 07:23:00,
2013-04-20 00:28:00,49.8,49.3,30.30,NNW,338,0.0,1.3,98,0.00,,---,0.00,VWS V14.01,2013-04-20 07:28:00,
2013-04-20 00:30:00,49.8,49.3,30.30,NNW,338,0.0,1.3,98,0.00,,---,0.00,VWS V14.01,2013-04-20 07:30:00,
2013-04-20 00:33:00,49.8,49.3,30.30,NNW,338,0.0,0.0,98,0.00,,---,0.00,VWS V14.01,2013-04-20 07:33:00,
2013-04-20 00:38:00,49.8,49.3,30.30,NNW,338,0.0,1.1,98,0.00,,---,0.00,VWS V14.01,2013-04-20 07:38:00,
2013-04-20 00:40:00,49.8,49.3,30.30,NNW,338,0.0,1.1,98,0.00,,---,0.00,VWS V14.01,2013-04-20 07:40:00,
2013-04-20 00:43:00,49.8,49.3,30.30,NNW,338,0.0,0.0,98,0.00,,---,0.00,VWS V14.01,2013-04-20 07:43:00,
2013-04-20 00:48:00,49.8,49.3,30.30,NNW,338,0.0,0.0,98,0.00,,---,0.00,VWS V14.01,2013-04-20 07:48:00,
2013-04-20 00:50:00,49.8,49.3,30.30,NNW,338,0.0,0.0,98,0.00,,---,0.00,VWS V14.01,2013-04-20 07:50:00,
2013-04-20 00:53:00,50.0,49.5,30.30,NNW,338,0.0,0.0,98,0.00,,---,0.00,VWS V14.01,2013-04-20 07:53:00,
2013-04-20 00:59:00,50.0,49.5,30.30,NNW,338,0.0,0.0,98,0.00,,---,0.00,VWS V14.01,2013-04-20 07:59:00,
2013-04-20 01:00:00,50.0,49.5,30.30,NNW,338,0.0,0.0,98,0.00,,---,0.00,VWS V14.01,2013-04-20 08:00:00,
2013-04-20 01:04:00,50.0,49.5,30.30,NNW,338,0.0,0.0,98,0.00,,---,0.00,VWS V14.01,2013-04-20 08:04:00,
2013-04-20 01:09:00,50.0,49.5,30.30,NNW,338,0.0,0.0,98,0.00,,---,0.00,VWS V14.01,2013-04-20 08:09:00,
2013-04-20 01:10:00,50.0,49.5,30.30,NNW,338,0.0,0.0,98,0.00,,---,0.00,VWS V14.01,2013-04-20 08:10:00,
2013-04-20 01:14:00,50.2,49.6,30.30,NNW,338,0.0,0.0,98,0.00,,---,0.00,VWS V14.01,2013-04-20 08:14:00,
2013-04-20 01:19:00,50.2,49.6,30.30,NNW,338,0.0,0.0,98,0.00,,---,0.00,VWS V14.01,2013-04-20 08:19:00,
2013-04-20 01:20:00,50.0,49.5,30.30,NNW,338,0.0,0.0,98,0.00,,---,0.00,VWS V14.01,2013-04-20 08:20:00,
2013-04-20 01:24:00,50.0,49.5,30.30,NE,45,0.0,1.3,98,0.00,,---,0.00,VWS V14.01,2013-04-20 08:24:00,
2013-04-20 01:29:00,50.0,49.5,30.30,WNW,292,1.3,3.4,98,0.00,,---,0.00,VWS V14.01,2013-04-20 08:29:00,
2013-04-20 01:30:00,50.0,49.5,30.30,WNW,292,1.3,3.4,98,0.00,,---,0.00,VWS V14.01,2013-04-20 08:30:00,
2013-04-20 01:35:00,49.8,49.3,30.30,NNW,338,0.9,3.8,98,0.00,,---,0.00,VWS V14.01,2013-04-20 08:35:00,
2013-04-20 01:40:00,49.8,49.3,30.30,WNW,292,2.9,3.8,98,0.00,,---,0.00,VWS V14.01,2013-04-20 08:40:00,
2013-04-20 01:45:00,49.6,49.1,30.30,WNW,292,1.3,3.4,98,0.00,,---,0.00,VWS V14.01,2013-04-20 08:45:00,
2013-04-20 01:50:00,49.6,49.1,30.30,NNW,338,0.0,3.1,98,0.00,,---,0.00,VWS V14.01,2013-04-20 08:50:00,
2013-04-20 01:55:00,49.6,49.1,30.30,NNW,338,2.5,3.8,98,0.00,,---,0.00,VWS V14.01,2013-04-20 08:55:00,
2013-04-20 02:00:00,49.5,48.9,30.30,WNW,292,0.9,2.9,98,0.00,,---,0.00,VWS V14.01,2013-04-20 09:00:00,
2013-04-20 02:05:00,49.5,48.9,30.30,WNW,292,0.9,2.9,98,0.00,,---,0.00,VWS V14.01,2013-04-20 09:05:00,
2013-04-20 02:11:00,49.5,48.9,30.30,WNW,292,2.0,2.0,98,0.00,,---,0.00,VWS V14.01,2013-04-20 09:11:00,
2013-04-20 02:16:00,49.5,48.9,30.30,WNW,292,1.1,2.5,98,0.00,,---,0.00,VWS V14.01,2013-04-20 09:16:00,
2013-04-20 02:21:00,49.5,48.9,30.30,WNW,292,0.9,3.4,98,0.00,,---,0.00,VWS V14.01,2013-04-20 09:21:00,
2013-04-20 02:26:00,49.5,48.9,30.30,WNW,292,0.0,3.4,98,0.00,,---,0.00,VWS V14.01,2013-04-20 09:26:00,
2013-04-20 02:30:00,49.5,48.9,30.30,WNW,292,0.0,3.4,98,0.00,,---,0.00,VWS V14.01,2013-04-20 09:30:00,
2013-04-20 02:31:00,49.5,48.9,30.30,WNW,292,0.0,0.0,98,0.00,,---,0.00,VWS V14.01,2013-04-20 09:31:00,
2013-04-20 02:36:00,49.5,48.9,30.30,NNW,338,3.1,3.1,98,0.00,,---,0.00,VWS V14.01,2013-04-20 09:36:00,
2013-04-20 02:40:00,49.5,48.9,30.30,WNW,292,2.0,3.1,98,0.00,,---,0.00,VWS V14.01,2013-04-20 09:40:00,
2013-04-20 02:41:00,49.5,48.9,30.30,WNW,292,0.9,2.0,98,0.00,,---,0.00,VWS V14.01,2013-04-20 09:41:00,
2013-04-20 02:47:00,49.3,48.7,30.30,WNW,292,1.3,2.0,98,0.00,,---,0.00,VWS V14.01,2013-04-20 09:47:00,
2013-04-20 02:50:00,49.3,48.7,30.30,WNW,292,1.6,2.0,98,0.00,,---,0.00,VWS V14.01,2013-04-20 09:50:00,
2013-04-20 02:52:00,49.3,48.7,30.30,NW,315,0.9,1.6,98,0.00,,---,0.00,VWS V14.01,2013-04-20 09:52:00,
2013-04-20 02:57:00,49.3,48.7,30.30,WNW,292,0.0,1.6,98,0.00,,---,0.00,VWS V14.01,2013-04-20 09:57:00,
2013-04-20 03:02:00,49.3,48.7,30.30,NNW,338,0.0,0.0,98,0.00,,---,0.00,VWS V14.01,2013-04-20 10:02:00,
2013-04-20 03:07:00,49.3,48.7,30.27,NW,315,0.0,1.1,98,0.00,,---,0.00,VWS V14.01,2013-04-20 10:07:00,
2013-04-20 03:10:00,49.3,48.7,30.27,NNW,338,2.2,2.2,98,0.00,,---,0.00,VWS V14.01,2013-04-20 10:10:00,
2013-04-20 03:12:00,49.3,48.7,30.27,NW,315,1.3,2.2,98,0.00,,---,0.00,VWS V14.01,2013-04-20 10:12:00,
2013-04-20 03:17:00,49.3,48.7,30.27,NNW,338,0.9,2.2,98,0.00,,---,0.00,VWS V14.01,2013-04-20 10:17:00,
2013-04-20 03:20:00,49.5,48.9,30.27,WNW,292,1.1,2.2,98,0.00,,---,0.00,VWS V14.01,2013-04-20 10:20:00,
2013-04-20 03:22:00,49.5,48.9,30.30,NNW,338,2.5,2.5,98,0.00,,---,0.00,VWS V14.01,2013-04-20 10:22:00,
2013-04-20 03:28:00,49.5,48.9,30.30,NNW,338,2.5,2.9,98,0.00,,---,0.00,VWS V14.01,2013-04-20 10:28:00,
2013-04-20 03:33:00,49.3,48.7,30.30,WNW,292,2.0,3.8,98,0.00,,---,0.00,VWS V14.01,2013-04-20 10:33:00,
2013-04-20 03:38:00,49.1,48.6,30.30,NNW,338,1.3,3.8,98,0.00,,---,0.00,VWS V14.01,2013-04-20 10:38:00,
2013-04-20 03:40:00,49.1,48.6,30.30,NNW,338,1.3,3.8,98,0.00,,---,0.00,VWS V14.01,2013-04-20 10:40:00,
2013-04-20 03:43:00,49.1,48.6,30.30,WNW,292,2.0,2.0,98,0.00,,---,0.00,VWS V14.01,2013-04-20 10:43:00,
2013-04-20 03:48:00,49.1,48.6,30.30,NNW,338,2.0,2.9,98,0.00,,---,0.00,VWS V14.01,2013-04-20 10:48:00,
2013-04-20 03:50:00,49.1,48.6,30.30,NNW,338,2.0,2.9,98,0.00,,---,0.00,VWS V14.01,2013-04-20 10:50:00,
2013-04-20 03:53:00,49.1,48.6,30.30,NNW,338,0.9,2.0,98,0.00,,---,0.00,VWS V14.01,2013-04-20 10:53:00,
2013-04-20 03:58:00,49.1,48.6,30.30,NNW,338,0.0,2.2,98,0.00,,---,0.00,VWS V14.01,2013-04-20 10:58:00,
2013-04-20 04:00:00,49.1,48.6,30.30,NNW,338,0.0,2.2,98,0.00,,---,0.00,VWS V14.01,2013-04-20 11:00:00,
2013-04-20 04:04:00,49.1,48.6,30.30,NNW,338,1.6,2.5,98,0.00,,---,0.00,VWS V14.01,2013-04-20 11:04:00,
2013-04-20 04:09:00,49.1,48.6,30.30,NNW,338,0.9,2.7,98,0.00,,---,0.00,VWS V14.01,2013-04-20 11:09:00,
2013-04-20 04:10:00,49.1,48.6,30.30,NNW,338,0.0,2.7,98,0.00,,---,0.00,VWS V14.01,2013-04-20 11:10:00,
2013-04-20 04:14:00,49.3,48.7,30.30,NNW,338,1.6,3.1,98,0.00,,---,0.00,VWS V14.01,2013-04-20 11:14:00,
2013-04-20 04:19:00,49.1,48.6,30.30,NW,315,1.3,3.1,98,0.00,,---,0.00,VWS V14.01,2013-04-20 11:19:00,
2013-04-20 04:24:00,49.1,48.6,30.30,NW,315,1.3,3.1,98,0.00,,---,0.00,VWS V14.01,2013-04-20 11:24:00,
2013-04-20 04:29:00,49.1,48.6,30.30,WNW,292,1.3,4.0,98,0.00,,---,0.00,VWS V14.01,2013-04-20 11:29:00,
2013-04-20 04:34:00,49.1,48.6,30.30,NNW,338,2.5,4.0,98,0.00,,---,0.00,VWS V14.01,2013-04-20 11:34:00,
2013-04-20 04:39:00,49.1,48.6,30.30,NW,315,2.5,4.0,98,0.00,,---,0.00,VWS V14.01,2013-04-20 11:39:00,
2013-04-20 04:40:00,49.1,48.6,30.30,NW,315,2.5,4.0,98,0.00,,---,0.00,VWS V14.01,2013-04-20 11:40:00,
2013-04-20 04:45:00,49.1,48.6,30.30,NW,315,0.9,2.5,98,0.00,,---,0.00,VWS V14.01,2013-04-20 11:45:00,
2013-04-20 04:50:00,48.9,48.4,30.30,NW,315,1.6,2.7,98,0.00,,---,0.00,VWS V14.01,2013-04-20 11:50:00,
2013-04-20 04:55:00,48.9,48.4,30.30,NNW,338,1.3,3.4,98,0.00,,---,0.00,VWS V14.01,2013-04-20 11:55:00,
2013-04-20 05:00:00,48.9,48.4,30.30,NNW,338,2.2,3.4,98,0.00,,---,0.00,VWS V14.01,2013-04-20 12:00:00,
2013-04-20 05:05:00,48.9,48.4,30.30,NNW,338,0.0,2.5,98,0.00,,---,0.00,VWS V14.01,2013-04-20 12:05:00,
2013-04-20 05:10:00,48.9,48.4,30.30,NNW,338,0.0,0.0,98,0.00,,---,0.00,VWS V14.01,2013-04-20 12:10:00,
2013-04-20 05:15:00,48.9,48.4,30.30,NNW,338,1.1,2.7,98,0.00,,---,0.00,VWS V14.01,2013-04-20 12:15:00,
2013-04-20 05:20:00,48.9,48.4,30.30,NNW,338,1.1,2.9,98,0.00,,---,0.00,VWS V14.01,2013-04-20 12:20:00,
2013-04-20 05:21:00,48.9,48.4,30.30,NNW,338,1.1,1.1,98,0.00,,---,0.00,VWS V14.01,2013-04-20 12:21:00,
2013-04-20 05:26:00,48.9,48.4,30.30,NNW,338,1.3,1.3,98,0.00,,---,0.00,VWS V14.01,2013-04-20 12:26:00,
2013-04-20 05:30:00,48.7,48.2,30.30,NW,315,2.5,2.5,98,0.00,,---,0.00,VWS V14.01,2013-04-20 12:30:00,
2013-04-20 05:31:00,48.7,48.2,30.30,NNW,338,0.0,2.5,98,0.00,,---,0.00,VWS V14.01,2013-04-20 12:31:00,
2013-04-20 05:36:00,48.7,48.2,30.30,NNW,338,3.4,3.4,98,0.00,,---,0.00,VWS V14.01,2013-04-20 12:36:00,
2013-04-20 05:41:00,48.7,48.2,30.30,NW,315,2.2,2.2,98,0.00,,---,0.00,VWS V14.01,2013-04-20 12:41:00,
2013-04-20 05:46:00,48.9,48.4,30.30,NNW,338,2.5,2.5,98,0.00,,---,0.00,VWS V14.01,2013-04-20 12:46:00,
2013-04-20 05:50:00,48.7,48.2,30.30,ENE,68,2.5,3.4,98,0.00,,---,0.00,VWS V14.01,2013-04-20 12:50:00,
2013-04-20 05:51:00,48.7,48.2,30.30,WNW,292,1.3,4.3,98,0.00,,---,0.00,VWS V14.01,2013-04-20 12:51:00,
2013-04-20 05:56:00,48.7,48.2,30.30,NNW,338,0.9,4.3,98,0.00,,---,0.00,VWS V14.01,2013-04-20 12:56:00,
2013-04-20 06:00:00,48.7,48.2,30.30,NNW,338,2.5,4.3,98,0.00,,---,0.00,VWS V14.01,2013-04-20 13:00:00,
2013-04-20 06:02:00,48.7,48.2,30.30,NNW,338,3.8,4.3,98,0.00,,---,0.00,VWS V14.01,2013-04-20 13:02:00,
2013-04-20 06:07:00,48.7,48.2,30.30,NW,315,0.0,4.3,98,0.00,,---,0.00,VWS V14.01,2013-04-20 13:07:00,
2013-04-20 06:10:00,48.7,48.2,30.30,NNW,338,1.1,4.3,98,0.00,,---,0.00,VWS V14.01,2013-04-20 13:10:00,
2013-04-20 06:12:00,48.7,48.2,30.30,North,0,2.9,2.9,98,0.00,,---,0.00,VWS V14.01,2013-04-20 13:12:00,
2013-04-20 06:17:00,48.7,48.2,30.30,NNW,338,1.3,2.9,98,0.00,,---,0.00,VWS V14.01,2013-04-20 13:17:00,
2013-04-20 06:22:00,48.6,48.0,30.30,NNE,22,0.0,2.7,98,0.00,,---,0.00,VWS V14.01,2013-04-20 13:22:00,
2013-04-20 06:27:00,48.6,48.0,30.30,NW,315,1.6,2.7,98,0.00,,---,0.00,VWS V14.01,2013-04-20 13:27:00,
2013-04-20 06:30:00,48.6,48.0,30.30,NW,315,0.9,2.7,98,0.00,,---,0.00,VWS V14.01,2013-04-20 13:30:00,
2013-04-20 06:32:00,48.6,48.0,30.30,WNW,292,0.0,2.2,98,0.00,,---,0.00,VWS V14.01,2013-04-20 13:32:00,
2013-04-20 06:38:00,48.6,48.0,30.30,NW,315,1.1,2.9,98,0.00,,---,0.00,VWS V14.01,2013-04-20 13:38:00,
2013-04-20 06:40:00,48.6,48.0,30.30,NNW,338,0.0,2.9,98,0.00,,---,0.00,VWS V14.01,2013-04-20 13:40:00,
2013-04-20 06:43:00,48.7,48.2,30.30,WNW,292,0.9,2.0,98,0.00,,---,0.00,VWS V14.01,2013-04-20 13:43:00,
2013-04-20 06:48:00,48.7,48.2,30.30,NNW,338,1.3,2.0,98,0.00,,---,0.00,VWS V14.01,2013-04-20 13:48:00,
2013-04-20 06:53:00,48.7,48.2,30.30,WNW,292,2.2,2.2,98,0.00,,---,0.00,VWS V14.01,2013-04-20 13:53:00,
2013-04-20 06:58:00,48.7,48.2,30.30,NNW,338,2.7,3.1,98,0.00,,---,0.00,VWS V14.01,2013-04-20 13:58:00,
2013-04-20 07:00:00,48.7,48.2,30.30,NW,315,2.7,3.1,98,0.00,,---,0.00,VWS V14.01,2013-04-20 14:00:00,
2013-04-20 07:03:00,48.7,48.2,30.30,NNW,338,1.3,2.7,98,0.00,,---,0.00,VWS V14.01,2013-04-20 14:03:00,
2013-04-20 07:08:00,48.7,48.2,30.30,NNW,338,0.9,2.7,98,0.00,,---,0.00,VWS V14.01,2013-04-20 14:08:00,
2013-04-20 07:14:00,48.7,48.2,30.30,NNW,338,1.1,2.5,98,0.00,,---,0.00,VWS V14.01,2013-04-20 14:14:00,
2013-04-20 07:19:00,48.7,48.2,30.30,NW,315,2.9,2.9,98,0.00,,---,0.00,VWS V14.01,2013-04-20 14:19:00,
2013-04-20 07:20:00,48.7,48.2,30.30,NNW,338,1.1,2.9,98,0.00,,---,0.00,VWS V14.01,2013-04-20 14:20:00,
2013-04-20 07:24:00,48.7,48.2,30.30,NNW,338,0.0,1.1,98,0.00,,---,0.00,VWS V14.01,2013-04-20 14:24:00,
2013-04-20 07:29:00,48.7,48.2,30.30,NNW,338,0.0,1.3,98,0.00,,---,0.00,VWS V14.01,2013-04-20 14:29:00,
2013-04-20 07:30:00,48.7,48.2,30.30,NNE,22,0.0,1.3,98,0.00,,---,0.00,VWS V14.01,2013-04-20 14:30:00,
2013-04-20 07:34:00,48.7,48.2,30.30,NNW,338,0.0,0.0,98,0.00,,---,0.00,VWS V14.01,2013-04-20 14:34:00,
2013-04-20 07:39:00,48.9,48.4,30.30,NNW,338,0.0,2.5,98,0.00,,---,0.00,VWS V14.01,2013-04-20 14:39:00,
2013-04-20 07:44:00,49.1,48.6,30.30,NNW,338,1.6,2.2,98,0.00,,---,0.00,VWS V14.01,2013-04-20 14:44:00,
2013-04-20 07:50:00,49.1,48.6,30.30,NNW,338,1.3,2.2,98,0.00,,---,0.00,VWS V14.01,2013-04-20 14:50:00,
2013-04-20 07:55:00,49.3,48.7,30.30,NNW,338,0.0,1.6,98,0.00,,---,0.00,VWS V14.01,2013-04-20 14:55:00,
2013-04-20 08:00:00,49.5,48.9,30.30,NNW,338,0.0,1.6,98,0.00,,---,0.00,VWS V14.01,2013-04-20 15:00:00,
2013-04-20 08:05:00,49.3,48.7,30.30,WNW,292,1.1,4.3,98,0.00,,---,0.00,VWS V14.01,2013-04-20 15:05:00,
2013-04-20 08:10:00,49.3,48.7,30.30,NNW,338,0.0,0.0,98,0.00,,---,0.00,VWS V14.01,2013-04-20 15:10:00,
2013-04-20 08:15:00,49.3,48.7,30.30,North,0,4.0,4.0,98,0.00,,---,0.00,VWS V14.01,2013-04-20 15:15:00,
2013-04-20 08:20:00,49.1,48.6,30.30,NNW,338,4.7,4.7,98,0.00,,---,0.00,VWS V14.01,2013-04-20 15:20:00,
2013-04-20 08:26:00,49.1,48.6,30.33,NNE,22,2.0,4.7,98,0.00,,---,0.00,VWS V14.01,2013-04-20 15:26:00,
2013-04-20 08:31:00,48.9,48.4,30.33,NNW,338,3.6,3.6,98,0.00,,---,0.00,VWS V14.01,2013-04-20 15:31:00,
2013-04-20 08:36:00,49.1,48.6,30.33,NNW,338,1.6,3.6,98,0.00,,---,0.00,VWS V14.01,2013-04-20 15:36:00,
2013-04-20 08:40:00,49.1,48.6,30.33,NNW,338,2.7,3.6,98,0.00,,---,0.00,VWS V14.01,2013-04-20 15:40:00,
2013-04-20 08:41:00,49.3,48.7,30.33,NW,315,2.7,2.7,98,0.00,,---,0.00,VWS V14.01,2013-04-20 15:41:00,
2013-04-20 08:46:00,49.5,48.9,30.33,NNW,338,4.3,4.3,98,0.00,,---,0.00,VWS V14.01,2013-04-20 15:46:00,
2013-04-20 08:50:00,49.5,48.9,30.33,WNW,292,3.6,5.8,98,0.00,,---,0.00,VWS V14.01,2013-04-20 15:50:00,
2013-04-20 08:51:00,49.5,48.9,30.33,NNW,338,4.0,4.0,98,0.00,,---,0.00,VWS V14.01,2013-04-20 15:51:00,
2013-04-20 08:56:00,49.6,49.1,30.33,NNW,338,1.6,4.3,98,0.00,,---,0.00,VWS V14.01,2013-04-20 15:56:00,
2013-04-20 09:00:00,49.8,49.3,30.33,NW,315,2.0,4.3,98,0.00,,---,0.00,VWS V14.01,2013-04-20 16:00:00,
2013-04-20 09:01:00,49.8,49.3,30.33,NNW,338,3.4,3.4,98,0.00,,---,0.00,VWS V14.01,2013-04-20 16:01:00,
2013-04-20 09:07:00,50.0,49.5,30.33,NW,315,3.6,5.6,98,0.00,,---,0.00,VWS V14.01,2013-04-20 16:07:00,
2013-04-20 09:10:00,50.2,49.6,30.33,North,0,3.8,5.6,98,0.00,,---,0.00,VWS V14.01,2013-04-20 16:10:00,
2013-04-20 09:12:00,50.2,49.6,30.33,NNW,338,2.5,3.8,98,0.00,,---,0.00,VWS V14.01,2013-04-20 16:12:00,
2013-04-20 09:17:00,50.2,49.6,30.33,NW,315,2.0,4.0,98,0.00,,---,0.00,VWS V14.01,2013-04-20 16:17:00,
2013-04-20 09:22:00,50.2,49.6,30.33,NNW,338,2.5,2.5,98,0.00,,---,0.00,VWS V14.01,2013-04-20 16:22:00,
2013-04-20 09:27:00,50.0,49.5,30.33,NNW,338,1.3,5.6,98,0.00,,---,0.00,VWS V14.01,2013-04-20 16:27:00,
2013-04-20 09:32:00,50.2,49.6,30.33,NNW,338,2.2,2.2,98,0.00,,---,0.00,VWS V14.01,2013-04-20 16:32:00,
2013-04-20 09:37:00,50.4,49.8,30.33,ENE,68,2.5,2.5,98,0.00,,---,0.00,VWS V14.01,2013-04-20 16:37:00,
2013-04-20 09:43:00,50.5,50.0,30.33,NNW,338,2.0,3.4,98,0.00,,---,0.00,VWS V14.01,2013-04-20 16:43:00,
2013-04-20 09:48:00,50.7,50.2,30.33,NNW,338,1.1,3.8,98,0.00,,---,0.00,VWS V14.01,2013-04-20 16:48:00,
2013-04-20 09:50:00,50.9,50.4,30.33,NW,315,1.6,3.8,98,0.00,,---,0.00,VWS V14.01,2013-04-20 16:50:00,
2013-04-20 09:53:00,51.1,50.5,30.30,North,0,2.0,2.9,98,0.00,,---,0.00,VWS V14.01,2013-04-20 16:53:00,
2013-04-20 09:58:00,51.3,50.7,30.30,NNE,22,2.2,3.4,98,0.00,,---,0.00,VWS V14.01,2013-04-20 16:58:00,
2013-04-20 10:00:00,51.4,50.9,30.30,North,0,1.1,3.4,98,0.00,,---,0.00,VWS V14.01,2013-04-20 17:00:00,
2013-04-20 10:03:00,51.6,51.1,30.30,NNE,22,3.8,3.8,98,0.00,,---,0.00,VWS V14.01,2013-04-20 17:03:00,
2013-04-20 10:08:00,51.6,51.1,30.30,NW,315,3.8,6.0,98,0.00,,---,0.00,VWS V14.01,2013-04-20 17:08:00,
2013-04-20 10:10:00,51.6,51.1,30.30,NW,315,3.8,6.0,98,0.00,,---,0.00,VWS V14.01,2013-04-20 17:10:00,
2013-04-20 10:13:00,51.8,51.3,30.30,NNE,22,2.5,3.8,98,0.00,,---,0.00,VWS V14.01,2013-04-20 17:13:00,
2013-04-20 10:19:00,51.8,51.3,30.30,NNW,338,2.9,4.7,98,0.00,,---,0.00,VWS V14.01,2013-04-20 17:19:00,
2013-04-20 10:20:00,51.8,51.3,30.30,NE,45,4.7,4.7,98,0.00,,---,0.00,VWS V14.01,2013-04-20 17:20:00,
2013-04-20 10:24:00,51.8,51.3,30.33,NNW,338,3.8,4.7,98,0.00,,---,0.00,VWS V14.01,2013-04-20 17:24:00,
2013-04-20 10:29:00,52.2,51.6,30.33,NNE,22,4.3,4.7,98,0.00,,---,0.00,VWS V14.01,2013-04-20 17:29:00,
2013-04-20 10:30:00,52.2,51.6,30.33,WNW,292,2.0,4.7,98,0.00,,---,0.00,VWS V14.01,2013-04-20 17:30:00,
2013-04-20 10:34:00,52.2,51.6,30.33,NNW,338,5.8,5.8,98,0.00,,---,0.00,VWS V14.01,2013-04-20 17:34:00,
2013-04-20 10:39:00,52.5,51.7,30.30,NNW,338,2.5,5.8,97,0.00,,---,0.00,VWS V14.01,2013-04-20 17:39:00,
2013-04-20 10:40:00,52.5,51.7,30.30,NNW,338,2.5,5.8,97,0.00,,---,0.00,VWS V14.01,2013-04-20 17:40:00,
2013-04-20 10:44:00,52.2,51.1,30.30,North,0,2.9,8.7,96,0.00,,---,0.00,VWS V14.01,2013-04-20 17:44:00,
2013-04-20 10:49:00,52.3,51.0,30.30,NNW,338,6.7,8.7,95,0.00,,---,0.00,VWS V14.01,2013-04-20 17:49:00,
2013-04-20 10:55:00,52.2,50.2,30.33,WNW,292,3.4,6.7,93,0.00,,---,0.00,VWS V14.01,2013-04-20 17:55:00,
2013-04-20 11:00:00,52.2,49.9,30.33,NNW,338,3.8,6.7,92,0.00,,---,0.00,VWS V14.01,2013-04-20 18:00:00,
2013-04-20 11:05:00,52.5,50.3,30.33,WNW,292,2.7,7.8,92,0.00,,---,0.00,VWS V14.01,2013-04-20 18:05:00,
2013-04-20 11:10:00,52.3,49.5,30.33,West,270,6.5,7.8,90,0.00,,---,0.00,VWS V14.01,2013-04-20 18:10:00,
2013-04-20 11:15:00,52.5,49.4,30.33,WNW,292,4.9,6.5,89,0.00,,---,0.00,VWS V14.01,2013-04-20 18:15:00,
2013-04-20 11:20:00,52.5,49.4,30.33,NNW,338,5.4,5.4,89,0.00,,---,0.00,VWS V14.01,2013-04-20 18:20:00,
2013-04-20 11:25:00,52.7,49.2,30.33,WNW,292,6.0,6.0,88,0.00,,---,0.00,VWS V14.01,2013-04-20 18:25:00,
2013-04-20 11:30:00,52.9,49.4,30.33,WNW,292,4.3,6.0,88,0.00,,---,0.00,VWS V14.01,2013-04-20 18:30:00,
2013-04-20 11:31:00,52.7,49.0,30.33,WNW,292,4.3,4.3,87,0.00,,---,0.00,VWS V14.01,2013-04-20 18:31:00,
2013-04-20 11:36:00,52.5,48.5,30.33,NNW,338,5.4,5.6,86,0.00,,---,0.00,VWS V14.01,2013-04-20 18:36:00,
2013-04-20 11:40:00,52.7,48.3,30.33,WNW,292,3.4,6.3,85,0.00,,---,0.00,VWS V14.01,2013-04-20 18:40:00,
2013-04-20 11:41:00,52.7,48.3,30.33,NNW,338,4.9,4.9,85,0.00,,---,0.00,VWS V14.01,2013-04-20 18:41:00,
2013-04-20 11:46:00,52.5,47.8,30.33,NNW,338,5.8,5.8,84,0.00,,---,0.00,VWS V14.01,2013-04-20 18:46:00,
2013-04-20 11:51:00,52.5,47.2,30.33,WNW,292,6.0,8.5,82,0.00,,---,0.00,VWS V14.01,2013-04-20 18:51:00,
2013-04-20 11:56:00,52.7,47.4,30.33,NNW,338,3.4,8.5,82,0.00,,---,0.00,VWS V14.01,2013-04-20 18:56:00,
2013-04-20 12:00:00,53.2,47.9,30.33,NNW,338,2.5,8.5,82,0.00,,---,0.00,VWS V14.01,2013-04-20 19:00:00,
2013-04-20 12:01:00,53.1,47.7,30.33,WNW,292,5.6,6.5,82,0.00,,---,0.00,VWS V14.01,2013-04-20 19:01:00,
2013-04-20 12:06:00,53.2,47.6,30.33,NNW,338,3.6,6.5,81,0.00,,---,0.00,VWS V14.01,2013-04-20 19:06:00,
2013-04-20 12:10:00,54.0,48.3,30.33,NNE,22,3.6,6.5,81,0.00,,---,0.00,VWS V14.01,2013-04-20 19:10:00,
2013-04-20 12:12:00,53.6,47.9,30.33,NNW,338,5.8,7.4,81,0.00,,---,0.00,VWS V14.01,2013-04-20 19:12:00,
2013-04-20 12:17:00,54.1,48.5,30.33,NNW,338,7.2,7.4,81,0.00,,---,0.00,VWS V14.01,2013-04-20 19:17:00,
2013-04-20 12:20:00,53.8,47.8,30.33,NNW,338,6.0,7.4,80,0.00,,---,0.00,VWS V14.01,2013-04-20 19:20:00,
2013-04-20 12:22:00,53.4,47.1,30.33,NNW,338,6.0,6.0,79,0.00,,---,0.00,VWS V14.01,2013-04-20 19:22:00,
2013-04-20 12:27:00,53.4,46.7,30.33,NNW,338,4.0,6.0,78,0.00,,---,0.00,VWS V14.01,2013-04-20 19:27:00,
2013-04-20 12:30:00,53.4,46.7,30.33,NNW,338,5.4,6.0,78,0.00,,---,0.00,VWS V14.01,2013-04-20 19:30:00,
2013-04-20 12:32:00,53.4,47.1,30.33,NNW,338,4.0,5.4,79,0.00,,---,0.00,VWS V14.01,2013-04-20 19:32:00,
2013-04-20 12:37:00,53.4,46.7,30.30,NNW,338,7.8,8.1,78,0.00,,---,0.00,VWS V14.01,2013-04-20 19:37:00,
2013-04-20 12:40:00,52.7,46.0,30.30,NNW,338,5.8,8.1,78,0.00,,---,0.00,VWS V14.01,2013-04-20 19:40:00,
2013-04-20 12:42:00,52.7,46.0,30.30,NNW,338,6.3,8.1,78,0.00,,---,0.00,VWS V14.01,2013-04-20 19:42:00,
2013-04-20 12:48:00,52.7,46.4,30.30,NNW,338,6.0,8.7,79,0.00,,---,0.00,VWS V14.01,2013-04-20 19:48:00,
2013-04-20 12:53:00,52.7,46.4,30.30,WSW,248,7.6,7.6,79,0.00,,---,0.00,VWS V14.01,2013-04-20 19:53:00,
2013-04-20 12:58:00,52.5,46.2,30.30,NNW,338,7.8,8.1,79,0.00,,---,0.00,VWS V14.01,2013-04-20 19:58:00,
2013-04-20 13:00:00,52.3,46.0,30.30,WNW,292,4.3,8.1,79,0.00,,---,0.00,VWS V14.01,2013-04-20 20:00:00,
2013-04-20 13:03:00,52.3,45.7,30.30,WNW,292,8.7,8.7,78,0.00,,---,0.00,VWS V14.01,2013-04-20 20:03:00,
2013-04-20 13:08:00,52.3,45.7,30.30,NNW,338,3.8,8.7,78,0.00,,---,0.00,VWS V14.01,2013-04-20 20:08:00,
2013-04-20 13:10:00,52.3,46.0,30.30,WNW,292,5.6,8.7,79,0.00,,---,0.00,VWS V14.01,2013-04-20 20:10:00,
2013-04-20 13:13:00,52.3,45.7,30.30,WNW,292,8.1,8.1,78,0.00,,---,0.00,VWS V14.01,2013-04-20 20:13:00,
2013-04-20 13:18:00,52.2,45.5,30.30,WNW,292,5.6,8.1,78,0.00,,---,0.00,VWS V14.01,2013-04-20 20:18:00,
2013-04-20 13:24:00,52.3,45.7,30.30,NNE,22,4.0,10.1,78,0.00,,---,0.00,VWS V14.01,2013-04-20 20:24:00,
2013-04-20 13:29:00,52.5,46.2,30.30,NW,315,8.5,10.1,79,0.00,,---,0.00,VWS V14.01,2013-04-20 20:29:00,
2013-04-20 13:30:00,52.5,46.2,30.30,WNW,292,4.9,10.1,79,0.00,,---,0.00,VWS V14.01,2013-04-20 20:30:00,
2013-04-20 13:34:00,52.3,46.0,30.30,NNW,338,6.3,6.5,79,0.00,,---,0.00,VWS V14.01,2013-04-20 20:34:00,
2013-04-20 13:39:00,52.5,46.5,30.30,NW,315,6.3,7.8,80,0.00,,---,0.00,VWS V14.01,2013-04-20 20:39:00,
2013-04-20 13:40:00,52.5,46.5,30.30,NNW,338,7.6,8.7,80,0.00,,---,0.00,VWS V14.01,2013-04-20 20:40:00,
2013-04-20 13:44:00,52.5,46.2,30.30,NNW,338,9.4,9.4,79,0.00,,---,0.00,VWS V14.01,2013-04-20 20:44:00,
2013-04-20 13:49:00,52.7,46.4,30.30,NNW,338,10.3,10.3,79,0.00,,---,0.00,VWS V14.01,2013-04-20 20:49:00,
2013-04-20 13:54:00,52.9,46.9,30.30,WNW,292,5.4,10.3,80,0.00,,---,0.00,VWS V14.01,2013-04-20 20:54:00,
2013-04-20 13:59:00,52.5,45.9,30.30,WNW,292,3.8,10.3,78,0.00,,---,0.00,VWS V14.01,2013-04-20 20:59:00,
2013-04-20 14:05:00,53.1,46.7,30.30,NNW,338,5.8,7.2,79,0.00,,---,0.00,VWS V14.01,2013-04-20 21:05:00,
2013-04-20 14:10:00,52.7,45.7,30.30,NW,315,3.8,7.4,77,0.00,,---,0.00,VWS V14.01,2013-04-20 21:10:00,
2013-04-20 14:15:00,52.7,45.7,30.30,WNW,292,6.0,7.4,77,0.00,,---,0.00,VWS V14.01,2013-04-20 21:15:00,
2013-04-20 14:20:00,52.5,45.2,30.30,WNW,292,8.1,8.1,76,0.00,,---,0.00,VWS V14.01,2013-04-20 21:20:00,
2013-04-20 14:25:00,52.5,45.2,30.30,NNW,338,9.8,9.8,76,0.00,,---,0.00,VWS V14.01,2013-04-20 21:25:00,
2013-04-20 14:30:00,52.7,45.4,30.30,NNW,338,5.8,9.8,76,0.00,,---,0.00,VWS V14.01,2013-04-20 21:30:00,
2013-04-20 14:35:00,52.7,45.0,30.30,NNW,338,5.8,5.8,75,0.00,,---,0.00,VWS V14.01,2013-04-20 21:35:00,
2013-04-20 14:41:00,53.1,45.4,30.30,WNW,292,7.2,7.2,75,0.00,,---,0.00,VWS V14.01,2013-04-20 21:41:00,
2013-04-20 14:46:00,52.9,44.8,30.30,NNW,338,3.1,8.5,74,0.00,,---,0.00,VWS V14.01,2013-04-20 21:46:00,
2013-04-20 14:51:00,53.1,45.0,30.30,WNW,292,9.6,9.6,74,0.00,,---,0.00,VWS V14.01,2013-04-20 21:51:00,
2013-04-20 14:56:00,53.4,45.7,30.30,NNE,22,5.6,9.6,75,0.00,,---,0.00,VWS V14.01,2013-04-20 21:56:00,
2013-04-20 15:00:00,53.2,44.8,30.30,NNW,338,9.2,9.6,73,0.00,,---,0.00,VWS V14.01,2013-04-20 22:00:00,
2013-04-20 15:01:00,53.1,44.7,30.30,NNW,338,5.6,9.2,73,0.00,,---,0.00,VWS V14.01,2013-04-20 22:01:00,
2013-04-20 15:06:00,53.4,45.0,30.30,WNW,292,4.9,9.2,73,0.00,,---,0.00,VWS V14.01,2013-04-20 22:06:00,
2013-04-20 15:11:00,53.1,44.3,30.30,WNW,292,6.3,11.0,72,0.00,,---,0.00,VWS V14.01,2013-04-20 22:11:00,
2013-04-20 15:17:00,53.1,43.9,30.30,NNW,338,7.6,11.0,71,0.00,,---,0.00,VWS V14.01,2013-04-20 22:17:00,
2013-04-20 15:22:00,53.1,43.9,30.30,NNW,338,6.5,10.1,71,0.00,,---,0.00,VWS V14.01,2013-04-20 22:22:00,
2013-04-20 15:27:00,53.2,44.1,30.30,NNW,338,7.8,10.1,71,0.00,,---,0.00,VWS V14.01,2013-04-20 22:27:00,
2013-04-20 15:32:00,53.4,43.9,30.30,WNW,292,6.0,6.0,70,0.00,,---,0.00,VWS V14.01,2013-04-20 22:32:00,
2013-04-20 15:37:00,53.2,43.7,30.30,WNW,292,4.0,6.9,70,0.00,,---,0.00,VWS V14.01,2013-04-20 22:37:00,
2013-04-20 15:40:00,53.6,43.7,30.30,WNW,292,3.6,6.9,69,0.00,,---,0.00,VWS V14.01,2013-04-20 22:40:00,
2013-04-20 15:42:00,53.8,43.9,30.30,NNW,338,7.8,8.1,69,0.00,,---,0.00,VWS V14.01,2013-04-20 22:42:00,
2013-04-20 15:47:00,53.6,43.3,30.30,West,270,7.8,9.4,68,0.00,,---,0.00,VWS V14.01,2013-04-20 22:47:00,
2013-04-20 15:52:00,53.6,42.9,30.27,NNW,338,9.2,9.2,67,0.00,,---,0.00,VWS V14.01,2013-04-20 22:52:00,
2013-04-20 15:58:00,53.6,42.5,30.27,WNW,292,6.5,10.3,66,0.00,,---,0.00,VWS V14.01,2013-04-20 22:58:00,
2013-04-20 16:03:00,53.8,42.7,30.27,WNW,292,6.0,8.7,66,0.00,,---,0.00,VWS V14.01,2013-04-20 23:03:00,
2013-04-20 16:08:00,54.0,42.9,30.27,NNW,338,5.8,10.5,66,0.00,,---,0.00,VWS V14.01,2013-04-20 23:08:00,
2013-04-20 16:10:00,54.1,43.0,30.27,NNW,338,8.5,10.5,66,0.00,,---,0.00,VWS V14.01,2013-04-20 23:10:00,
2013-04-20 16:13:00,54.0,42.5,30.27,NNW,338,8.1,8.5,65,0.00,,---,0.00,VWS V14.01,2013-04-20 23:13:00,
2013-04-20 16:18:00,54.5,43.4,30.27,WNW,292,6.0,9.2,66,0.00,,---,0.00,VWS V14.01,2013-04-20 23:18:00,
2013-04-20 16:23:00,54.0,42.1,30.27,WNW,292,5.8,9.6,64,0.00,,---,0.00,VWS V14.01,2013-04-20 23:23:00,
2013-04-20 16:28:00,54.1,43.0,30.27,ESE,112,5.6,9.6,66,0.00,,---,0.00,VWS V14.01,2013-04-20 23:28:00,
2013-04-20 16:30:00,54.3,43.2,30.27,WNW,292,4.3,9.6,66,0.00,,---,0.00,VWS V14.01,2013-04-20 23:30:00,
2013-04-20 16:34:00,54.5,43.4,30.27,NNW,338,3.1,7.4,66,0.00,,---,0.00,VWS V14.01,2013-04-20 23:34:00,
2013-04-20 16:39:00,54.5,43.0,30.27,NNW,338,6.5,9.6,65,0.00,,---,0.00,VWS V14.01,2013-04-20 23:39:00,
2013-04-20 16:40:00,54.5,43.0,30.27,NNW,338,6.3,9.6,65,0.00,,---,0.00,VWS V14.01,2013-04-20 23:40:00,
2013-04-20 16:44:00,54.3,43.2,30.27,NNW,338,13.0,13.0,66,0.00,,---,0.00,VWS V14.01,2013-04-20 23:44:00,
2013-04-20 16:49:00,54.1,43.0,30.27,WNW,292,6.3,13.0,66,0.00,,---,0.00,VWS V14.01,2013-04-20 23:49:00,
2013-04-20 16:54:00,54.1,43.0,30.27,NNW,338,9.8,9.8,66,0.00,,---,0.00,VWS V14.01,2013-04-20 23:54:00,
2013-04-20 16:59:00,53.8,42.3,30.27,NNW,338,6.0,10.3,65,0.00,,---,0.00,VWS V14.01,2013-04-20 23:59:00,
2013-04-20 17:00:00,53.8,42.3,30.27,WNW,292,5.8,10.3,65,0.00,,---,0.00,VWS V14.01,2013-04-21 00:00:00,
2013-04-20 17:04:00,53.8,42.3,30.27,WNW,292,3.4,7.8,65,0.00,,---,0.00,VWS V14.01,2013-04-21 00:04:00,
2013-04-20 17:10:00,53.8,42.3,30.27,NNW,338,5.8,7.8,65,0.00,,---,0.00,VWS V14.01,2013-04-21 00:10:00,
2013-04-20 17:15:00,54.5,43.4,30.27,WNW,292,6.5,9.0,66,0.00,,---,0.00,VWS V14.01,2013-04-21 00:15:00,
2013-04-20 17:20:00,54.5,43.4,30.27,NNW,338,3.6,9.2,66,0.00,,---,0.00,VWS V14.01,2013-04-21 00:20:00,
2013-04-20 17:25:00,54.5,43.4,30.27,NNW,338,5.8,12.5,66,0.00,,---,0.00,VWS V14.01,2013-04-21 00:25:00,
2013-04-20 17:30:00,54.5,43.4,30.27,NNW,338,6.0,12.5,66,0.00,,---,0.00,VWS V14.01,2013-04-21 00:30:00,
2013-04-20 17:35:00,54.9,43.7,30.27,NNW,338,5.4,7.8,66,0.00,,---,0.00,VWS V14.01,2013-04-21 00:35:00,
2013-04-20 17:40:00,54.9,43.7,30.27,NNE,22,6.0,6.0,66,0.00,,---,0.00,VWS V14.01,2013-04-21 00:40:00,
2013-04-20 17:45:00,55.2,43.7,30.27,WNW,292,6.3,6.5,65,0.00,,---,0.00,VWS V14.01,2013-04-21 00:45:00,
2013-04-20 17:50:00,54.5,42.2,30.27,NW,315,4.3,8.7,63,0.00,,---,0.00,VWS V14.01,2013-04-21 00:50:00,
2013-04-20 17:51:00,54.5,42.6,30.27,WNW,292,7.6,7.6,64,0.00,,---,0.00,VWS V14.01,2013-04-21 00:51:00,
2013-04-20 17:56:00,53.6,41.7,30.27,NNW,338,6.3,7.6,64,0.00,,---,0.00,VWS V14.01,2013-04-21 00:56:00,
2013-04-20 18:00:00,54.0,42.5,30.27,NNW,338,4.9,7.6,65,0.00,,---,0.00,VWS V14.01,2013-04-21 01:00:00,
2013-04-20 18:01:00,54.0,42.5,30.27,NNE,22,5.4,5.4,65,0.00,,---,0.00,VWS V14.01,2013-04-21 01:01:00,
2013-04-20 18:06:00,54.1,42.7,30.24,NNW,338,5.8,6.3,65,0.00,,---,0.00,VWS V14.01,2013-04-21 01:06:00,
2013-04-20 18:10:00,54.1,42.7,30.24,NNE,22,5.4,6.3,65,0.00,,---,0.00,VWS V14.01,2013-04-21 01:10:00,
2013-04-20 18:11:00,54.0,42.5,30.24,North,0,3.4,5.4,65,0.00,,---,0.00,VWS V14.01,2013-04-21 01:11:00,
2013-04-20 18:16:00,53.4,42.4,30.24,WNW,292,5.4,7.2,66,0.00,,---,0.00,VWS V14.01,2013-04-21 01:16:00,
2013-04-20 18:20:00,52.7,41.7,30.24,NW,315,14.3,14.3,66,0.00,,---,0.00,VWS V14.01,2013-04-21 01:20:00,
2013-04-20 18:21:00,52.3,41.3,30.24,NNW,338,4.3,14.3,66,0.00,,---,0.00,VWS V14.01,2013-04-21 01:21:00,
2013-04-20 18:27:00,52.5,41.9,30.24,WNW,292,2.5,14.3,67,0.00,,---,0.00,VWS V14.01,2013-04-21 01:27:00,
2013-04-20 18:30:00,52.5,41.9,30.24,North,0,3.6,14.3,67,0.00,,---,0.00,VWS V14.01,2013-04-21 01:30:00,
2013-04-20 18:32:00,52.7,42.1,30.24,ENE,68,5.4,5.4,67,0.00,,---,0.00,VWS V14.01,2013-04-21 01:32:00,
2013-04-20 18:37:00,52.7,42.5,30.24,WNW,292,4.3,7.2,68,0.00,,---,0.00,VWS V14.01,2013-04-21 01:37:00,
2013-04-20 18:40:00,52.5,41.9,30.24,West,270,3.8,7.4,67,0.00,,---,0.00,VWS V14.01,2013-04-21 01:40:00,
2013-04-20 18:42:00,52.7,42.5,30.24,NW,315,4.9,4.9,68,0.00,,---,0.00,VWS V14.01,2013-04-21 01:42:00,
2013-04-20 18:47:00,52.9,42.6,30.24,NNW,338,3.1,4.9,68,0.00,,---,0.00,VWS V14.01,2013-04-21 01:47:00,
2013-04-20 18:50:00,52.3,42.1,30.24,WNW,292,4.0,4.9,68,0.00,,---,0.00,VWS V14.01,2013-04-21 01:50:00,
2013-04-20 18:52:00,51.8,41.6,30.24,NNW,338,3.4,5.6,68,0.00,,---,0.00,VWS V14.01,2013-04-21 01:52:00,
2013-04-20 18:57:00,51.8,41.6,30.24,NNW,338,5.4,8.5,68,0.00,,---,0.00,VWS V14.01,2013-04-21 01:57:00,
2013-04-20 19:00:00,51.6,41.8,30.24,NNW,338,8.1,8.5,69,0.00,,---,0.00,VWS V14.01,2013-04-21 02:00:00,
2013-04-20 19:03:00,51.4,41.6,30.24,NNW,338,2.9,8.1,69,0.00,,---,0.00,VWS V14.01,2013-04-21 02:03:00,
2013-04-20 19:08:00,51.3,41.8,30.24,NNW,338,2.5,8.7,70,0.00,,---,0.00,VWS V14.01,2013-04-21 02:08:00,
2013-04-20 19:10:00,51.3,41.8,30.24,WNW,292,2.5,8.7,70,0.00,,---,0.00,VWS V14.01,2013-04-21 02:10:00,
2013-04-20 19:13:00,51.1,42.0,30.24,North,0,6.0,9.0,71,0.00,,---,0.00,VWS V14.01,2013-04-21 02:13:00,
2013-04-20 19:18:00,50.7,41.7,30.24,WNW,292,2.7,9.0,71,0.00,,---,0.00,VWS V14.01,2013-04-21 02:18:00,
2013-04-20 19:20:00,50.7,41.7,30.24,West,270,3.8,9.0,71,0.00,,---,0.00,VWS V14.01,2013-04-21 02:20:00,
2013-04-20 19:23:00,50.4,41.7,30.24,WNW,292,7.4,7.4,72,0.00,,---,0.00,VWS V14.01,2013-04-21 02:23:00,
2013-04-20 19:28:00,50.2,41.9,30.24,NNW,338,3.8,7.4,73,0.00,,---,0.00,VWS V14.01,2013-04-21 02:28:00,
2013-04-20 19:30:00,50.2,41.9,30.24,NNW,338,3.8,7.4,73,0.00,,---,0.00,VWS V14.01,2013-04-21 02:30:00,
2013-04-20 19:33:00,50.2,41.9,30.24,NNW,338,4.3,6.3,73,0.00,,---,0.00,VWS V14.01,2013-04-21 02:33:00,
2013-04-20 19:38:00,50.2,42.2,30.27,WNW,292,5.6,6.3,74,0.00,,---,0.00,VWS V14.01,2013-04-21 02:38:00,
2013-04-20 19:40:00,50.2,42.2,30.27,WNW,292,4.7,6.3,74,0.00,,---,0.00,VWS V14.01,2013-04-21 02:40:00,
2013-04-20 19:44:00,50.2,42.2,30.27,NNW,338,4.9,5.6,74,0.00,,---,0.00,VWS V14.01,2013-04-21 02:44:00,
2013-04-20 19:49:00,50.0,42.0,30.27,North,0,6.5,7.2,74,0.00,,---,0.00,VWS V14.01,2013-04-21 02:49:00,
2013-04-20 19:50:00,50.0,42.0,30.27,NNW,338,3.1,7.2,74,0.00,,---,0.00,VWS V14.01,2013-04-21 02:50:00,
2013-04-20 19:54:00,49.8,42.2,30.27,WNW,292,3.6,5.6,75,0.00,,---,0.00,VWS V14.01,2013-04-21 02:54:00,
2013-04-20 19:59:00,49.8,42.2,30.27,NNW,338,5.8,6.5,75,0.00,,---,0.00,VWS V14.01,2013-04-21 02:59:00,
2013-04-20 20:00:00,49.8,42.2,30.27,NNW,338,5.8,6.5,75,0.00,,---,0.00,VWS V14.01,2013-04-21 03:00:00,
2013-04-20 20:04:00,49.8,42.2,30.27,NNW,338,4.3,6.3,75,0.00,,---,0.00,VWS V14.01,2013-04-21 03:04:00,
2013-04-20 20:09:00,50.0,42.4,30.27,NNW,338,7.8,7.8,75,0.00,,---,0.00,VWS V14.01,2013-04-21 03:09:00,
2013-04-20 20:10:00,50.0,42.4,30.27,NNW,338,7.8,7.8,75,0.00,,---,0.00,VWS V14.01,2013-04-21 03:10:00,
2013-04-20 20:14:00,49.6,43.1,30.27,WNW,292,7.4,7.8,78,0.00,,---,0.00,VWS V14.01,2013-04-21 03:14:00,
2013-04-20 20:20:00,49.6,43.4,30.27,NNW,338,9.8,9.8,79,0.00,,---,0.00,VWS V14.01,2013-04-21 03:20:00,
2013-04-20 20:25:00,49.5,43.2,30.27,NNW,338,7.6,9.8,79,0.00,,---,0.00,VWS V14.01,2013-04-21 03:25:00,
2013-04-20 20:30:00,49.3,42.7,30.27,NW,315,3.4,9.8,78,0.00,,---,0.00,VWS V14.01,2013-04-21 03:30:00,
2013-04-20 20:35:00,49.1,42.5,30.27,NNW,338,5.4,5.8,78,0.00,,---,0.00,VWS V14.01,2013-04-21 03:35:00,
2013-04-20 20:40:00,48.9,42.4,30.27,WNW,292,5.8,5.8,78,0.00,,---,0.00,VWS V14.01,2013-04-21 03:40:00,
2013-04-20 20:45:00,48.9,42.4,30.27,North,0,4.9,8.1,78,0.00,,---,0.00,VWS V14.01,2013-04-21 03:45:00,
2013-04-20 20:50:00,49.1,42.5,30.27,WNW,292,2.9,2.9,78,0.00,,---,0.00,VWS V14.01,2013-04-21 03:50:00,
2013-04-20 20:56:00,49.1,42.5,30.27,North,0,6.3,6.5,78,0.00,,---,0.00,VWS V14.01,2013-04-21 03:56:00,
2013-04-20 21:00:00,49.1,42.5,30.27,NNW,338,6.0,6.9,78,0.00,,---,0.00,VWS V14.01,2013-04-21 04:00:00,
2013-04-20 21:01:00,49.1,42.5,30.27,NNW,338,5.8,6.0,78,0.00,,---,0.00,VWS V14.01,2013-04-21 04:01:00,
2013-04-20 21:02:00,49.1,42.5,30.27,NNW,338,3.8,6.0,78,0.00,,---,0.00,VWS V14.01,2013-04-21 04:02:00,
2013-04-20 21:03:00,49.1,42.5,30.27,North,0,2.7,6.0,78,0.00,,---,0.00,VWS V14.01,2013-04-21 04:03:00,
2013-04-20 21:05:00,49.1,42.5,30.27,NNW,338,4.9,6.0,78,0.00,,---,0.00,VWS V14.01,2013-04-21 04:05:00,
2013-04-20 21:09:00,48.9,42.4,30.27,NNW,338,4.3,7.6,78,0.00,,---,0.00,VWS V14.01,2013-04-21 04:09:00,
2013-04-20 21:10:00,48.9,42.4,30.27,NNW,338,2.7,7.6,78,0.00,,---,0.00,VWS V14.01,2013-04-21 04:10:00,
2013-04-20 21:14:00,48.7,42.2,30.27,NNW,338,3.6,5.4,78,0.00,,---,0.00,VWS V14.01,2013-04-21 04:14:00,
2013-04-20 21:19:00,48.7,42.2,30.27,NNW,338,6.3,6.3,78,0.00,,---,0.00,VWS V14.01,2013-04-21 04:19:00,
2013-04-20 21:20:00,48.7,42.2,30.27,NNW,338,6.3,6.3,78,0.00,,---,0.00,VWS V14.01,2013-04-21 04:20:00,
2013-04-20 21:24:00,48.6,42.0,30.27,NNW,338,3.4,6.3,78,0.00,,---,0.00,VWS V14.01,2013-04-21 04:24:00,
2013-04-20 21:29:00,48.6,42.3,30.27,NW,315,2.7,6.3,79,0.00,,---,0.00,VWS V14.01,2013-04-21 04:29:00,
2013-04-20 21:30:00,48.6,42.3,30.27,NW,315,2.7,6.3,79,0.00,,---,0.00,VWS V14.01,2013-04-21 04:30:00,
2013-04-20 21:35:00,48.4,42.2,30.27,NW,315,5.8,5.8,79,0.00,,---,0.00,VWS V14.01,2013-04-21 04:35:00,
2013-04-20 21:40:00,48.4,42.2,30.27,NNW,338,4.7,5.8,79,0.00,,---,0.00,VWS V14.01,2013-04-21 04:40:00,
2013-04-20 21:45:00,48.4,42.2,30.27,NNW,338,2.7,4.7,79,0.00,,---,0.00,VWS V14.01,2013-04-21 04:45:00,
2013-04-20 21:50:00,48.7,42.5,30.27,NNW,338,3.6,4.7,79,0.00,,---,0.00,VWS V14.01,2013-04-21 04:50:00,
2013-04-20 21:55:00,48.7,42.9,30.27,NNW,338,2.7,3.8,80,0.00,,---,0.00,VWS V14.01,2013-04-21 04:55:00,
2013-04-20 22:00:00,48.7,42.9,30.27,NNW,338,1.1,3.8,80,0.00,,---,0.00,VWS V14.01,2013-04-21 05:00:00,
2013-04-20 22:05:00,48.7,42.9,30.27,North,0,2.2,3.4,80,0.00,,---,0.00,VWS V14.01,2013-04-21 05:05:00,
2013-04-20 22:10:00,48.7,42.9,30.27,NW,315,3.8,4.0,80,0.00,,---,0.00,VWS V14.01,2013-04-21 05:10:00,
2013-04-20 22:16:00,48.7,42.5,30.27,WNW,292,3.8,4.0,79,0.00,,---,0.00,VWS V14.01,2013-04-21 05:16:00,
2013-04-20 22:20:00,48.7,42.5,30.27,NNW,338,3.4,6.0,79,0.00,,---,0.00,VWS V14.01,2013-04-21 05:20:00,
2013-04-20 22:21:00,48.7,42.5,30.27,NNW,338,2.7,3.4,79,0.00,,---,0.00,VWS V14.01,2013-04-21 05:21:00,
2013-04-20 22:26:00,48.7,42.5,30.27,NW,315,2.0,5.8,79,0.00,,---,0.00,VWS V14.01,2013-04-21 05:26:00,
2013-04-20 22:30:00,48.7,42.5,30.27,NNW,338,3.4,5.8,79,0.00,,---,0.00,VWS V14.01,2013-04-21 05:30:00,
2013-04-20 22:31:00,48.7,42.5,30.27,NNW,338,2.0,3.4,79,0.00,,---,0.00,VWS V14.01,2013-04-21 05:31:00,
2013-04-20 22:36:00,48.7,42.5,30.27,NNW,338,1.6,3.8,79,0.00,,---,0.00,VWS V14.01,2013-04-21 05:36:00,
2013-04-20 22:40:00,48.7,42.5,30.27,NNE,22,1.6,4.0,79,0.00,,---,0.00,VWS V14.01,2013-04-21 05:40:00,
2013-04-20 22:41:00,48.7,42.5,30.27,NNW,338,3.4,3.4,79,0.00,,---,0.00,VWS V14.01,2013-04-21 05:41:00,
2013-04-20 22:47:00,48.7,42.5,30.27,NNW,338,0.9,3.4,79,0.00,,---,0.00,VWS V14.01,2013-04-21 05:47:00,
2013-04-20 22:50:00,48.7,42.5,30.27,NNW,338,0.0,3.4,79,0.00,,---,0.00,VWS V14.01,2013-04-21 05:50:00,
2013-04-20 22:52:00,48.7,42.5,30.27,WNW,292,2.9,2.9,79,0.00,,---,0.00,VWS V14.01,2013-04-21 05:52:00,
2013-04-20 22:57:00,48.7,42.5,30.27,NNW,338,1.6,4.3,79,0.00,,---,0.00,VWS V14.01,2013-04-21 05:57:00,
2013-04-20 23:00:00,48.7,42.5,30.27,NNW,338,3.6,6.5,79,0.00,,---,0.00,VWS V14.01,2013-04-21 06:00:00,
2013-04-20 23:02:00,48.7,42.5,30.27,NNW,338,3.1,3.6,79,0.00,,---,0.00,VWS V14.01,2013-04-21 06:02:00,
2013-04-20 23:07:00,48.7,42.5,30.27,NNW,338,3.6,5.6,79,0.00,,---,0.00,VWS V14.01,2013-04-21 06:07:00,
2013-04-20 23:10:00,48.7,42.2,30.27,NNE,22,4.9,5.8,78,0.00,,---,0.00,VWS V14.01,2013-04-21 06:10:00,
2013-04-20 23:12:00,48.9,42.4,30.27,NW,315,2.7,4.9,78,0.00,,---,0.00,VWS V14.01,2013-04-21 06:12:00,
2013-04-20 23:17:00,48.9,42.4,30.27,ENE,68,2.9,6.0,78,0.00,,---,0.00,VWS V14.01,2013-04-21 06:17:00,
2013-04-20 23:20:00,48.9,42.4,30.27,NNE,22,3.4,6.0,78,0.00,,---,0.00,VWS V14.01,2013-04-21 06:20:00,
2013-04-20 23:22:00,48.9,42.0,30.27,NNW,338,2.0,3.4,77,0.00,,---,0.00,VWS V14.01,2013-04-21 06:22:00,
2013-04-20 23:28:00,48.9,42.4,30.27,NNW,338,2.9,4.9,78,0.00,,---,0.00,VWS V14.01,2013-04-21 06:28:00,
2013-04-20 23:30:00,49.1,42.2,30.27,NW,315,3.6,4.9,77,0.00,,---,0.00,VWS V14.01,2013-04-21 06:30:00,
2013-04-20 23:33:00,49.1,42.2,30.27,NNW,338,2.0,3.6,77,0.00,,---,0.00,VWS V14.01,2013-04-21 06:33:00,
2013-04-20 23:38:00,48.9,42.0,30.27,NNW,338,4.3,4.3,77,0.00,,---,0.00,VWS V14.01,2013-04-21 06:38:00,
2013-04-20 23:40:00,48.9,42.0,30.27,NNW,338,3.1,4.3,77,0.00,,---,0.00,VWS V14.01,2013-04-21 06:40:00,
2013-04-20 23:43:00,48.9,42.0,30.27,NNW,338,3.8,3.8,77,0.00,,---,0.00,VWS V14.01,2013-04-21 06:43:00,
2013-04-20 23:48:00,48.9,42.0,30.27,NNW,338,3.6,5.8,77,0.00,,---,0.00,VWS V14.01,2013-04-21 06:48:00,
2013-04-20 23:50:00,48.9,41.7,30.27,NNW,338,2.0,5.8,76,0.00,,---,0.00,VWS V14.01,2013-04-21 06:50:00,
2013-04-20 23:53:00,48.9,41.7,30.27,NNW,338,4.7,4.7,76,0.00,,---,0.00,VWS V14.01,2013-04-21 06:53:00,
2013-04-20 23:58:00,48.9,41.7,30.27,WNW,292,4.5,5.4,76,0.00,,---,0.00,VWS V14.01,2013-04-21 06:58:00,